Terug naar catalogus

ARIANE 5 DEB

SYLDA

ActiefGTO
NORAD 44037·DEBRIS·🇫🇷 France

Gelanceerd Feb 5, 2019 vanaf Guiana Space Centre

Loading…

TLE

VerouderdSource: Space-Track

Epoch: Sep 14, 2026, 01:27 UTC

1 44037U 19007D   26257.06081687  .00004848  00000-0  14782-2 0  9991
2 44037   2.5206 153.0932 7133224  46.3468 354.0177  2.46532341 65223

Volg ARIANE 5 DEB in realtime met AllMySat

Download on the App Store